Regional Weather Roundup
Issued by NWS Sioux Falls, SD

Home | Current Version | Previous Version | Graphics & Text | Print | Product List | Glossary On
Versions: 1 2 3 4 5 6 7 8 9 10 11 12 13 14 15 16 17 18 19 20 21 22 23 24 25 26 27 28 29 30 31 32 33 34 35 36 37 38 39 40 41 42 43 44 45 46 47 48 49 50
000
ASUS43 KFSD 281810
RWRFSD

WEATHER ROUNDUP FOR SE SOUTH DAKOTA/SW MINNESOTA/NW IOWA
NATIONAL WEATHER SERVICE SIOUX FALLS SD
100 PM CDT SUN MAY 28 2017

NOTE: "FAIR" INDICATES FEW OR NO CLOUDS BELOW 12,000 FEET WITH NO
SIGNIFICANT WEATHER AND OR OBSTRUCTIONS TO VISIBILITY.


SDZ038>040-050-052>070-281900-
SOUTHEAST SOUTH DAKOTA

CITY           SKY/WX    TMP DP  RH WIND       PRES   REMARKS
BROOKINGS      PTSUNNY   68  45  43 NW21      29.86F
CHAMBERLAIN    SUNNY     76  37  25 NW17G29   29.96S
6HR MIN TEMP:  54; 6HR MAX TEMP:  76;

HURON          MOSUNNY   73  41  31 NW20G31   29.89S
6HR MIN TEMP:  48; 6HR MAX TEMP:  74;

MADISON        FAIR      66  45  45 NW18G30   29.90S
MITCHELL       MOSUNNY   75  39  27 NW23G31   29.92S
6HR MIN TEMP:  50; 6HR MAX TEMP:  76;

SIOUX FALLS    MOSUNNY   70  47  43 NW17G25   29.89R
6HR MIN TEMP:  53; 6HR MAX TEMP:  71;

WINNER         FAIR      74  40  29 NW24G30   30.00S
YANKTON        SUNNY     72  44  36 NW24G35   29.92R
$$

MNZ071-072-080-081-089-090-097-098-281900-
SOUTHWEST MINNESOTA

CITY           SKY/WX    TMP DP  RH WIND       PRES   REMARKS
FAIRMONT       PTSUNNY   71  43  36 NW21      29.83S
JACKSON        PTSUNNY   70  41  35 NW20G26   29.85S
LUVERNE        PTSUNNY   70  37  30 NW21G26   29.87S
MARSHALL       MOSUNNY   70  44  39 NW22G32   29.82S
6HR MIN TEMP:  54; 6HR MAX TEMP:  70;

MONTEVIDEO     MOSUNNY   72  45  37 N18G26    29.80S
PIPESTONE      MOSUNNY   70  28  21 NW15G33   29.87S
REDWOOD FALLS  CLOUDY    69  44  40 W13G22    29.80S
TRACY          PTSUNNY   71  42  34 NW20G30   29.84S
WINDOM         MOSUNNY   70  39  32 W17G25    29.84S
WORTHINGTON    PTSUNNY   68  44  42 NW20G26   29.87R
$$

IAZ001>003-012>014-020>022-031-032-NEZ013-014-SDZ071-281900-
NORTHWEST IOWA

CITY           SKY/WX    TMP DP  RH WIND       PRES   REMARKS
CHEROKEE       SUNNY     73  45  36 W13       29.86F
DENISON        SUNNY     75  45  33 W16G28    29.89S
ESTHERVILLE    PTSUNNY   70  46  42 W17G24    29.84S
LE MARS        SUNNY     73  48  40 NW14G21   29.88F
ORANGE CITY    SUNNY     72  52  49 NW17G23   29.88S
SHELDON        MOSUNNY   72  45  37 W13G22    29.86F
SIOUX CITY     MOSUNNY   75  50  41 NW16G26   29.88S
6HR MIN TEMP:  54; 6HR MAX TEMP:  76;

SPENCER        SUNNY     73  46  38 W15G25    29.86S
6HR MIN TEMP:  54; 6HR MAX TEMP:  73;

STORM LAKE       N/A     73  45  35 W18       29.87S
$$

ABBREVIATIONS USED IN REMARKS
   TC - TEMPERATURE IN CELSIUS
  WCI - WIND CHILL INDEX
   HX - HEAT INDEX
  VSB - VISIBILITY





USA.gov is the U.S. government's official web portal to all federal, state and local government web resources and services.